Terug naar catalogus

COSMOS 2426

GLONASS

ActiefNavigatieMEO
NORAD 29671·PAYLOAD·🇷🇺 Russia

Gelanceerd Dec 25, 2006 vanaf Baikonur Cosmodrome

Loading…

Volgende Passages (komende 24 uur)

TLE

VersSource: Space-Track

Epoch: Sep 14, 2026, 13:44 UTC

1 29671U 06062B   26257.57258448  .00000021  00000-0  00000-0 0  9997
2 29671  64.7014 191.5754 0021646 183.6948 356.0180  2.12963853153459

Volg COSMOS 2426 in realtime met AllMySat

Download on the App Store